Location: Marcé
(47.5801°N, 0.3280°W)
Time: 20:24:01
(UTC+01:00)

Altair - Pass Details

Date: 10 December 2021
Orbit: 1501 x 1683 km, 47.2° (Epoch: 20 January)

Event Time Altitude Azimuth Distance (km) Brightness Sun altitude
Rises 13:46:18 0° 207° (SSW) 4,848 11.6 18.5°
Reaches altitude 10° 13:49:48 10° 199° (SSW) 3,839 12.0 18.4°
Maximum altitude 13:58:18 36° 138° (SE) 2,332 9.1 18.0°
Drops below altitude 10° 14:06:31 10° 77° (ENE) 3,725 9.3 17.6°
Sets 14:09:50 0° 69° (ENE) 4,689 9.7 17.4°
